Location: The Saddle
(36.8333°N, 80.3417°W)
Time: 16:02:31
(UTC-05:00)

X-37B - Pass Details

Date: 05 December 2023
Orbit: 277 x 277 km, 45.0° (Epoch: 01 November)

Event Time Altitude Azimuth Distance (km) Brightness Sun altitude
Rises 18:04:00 0° 300° (WNW) 1,914 4.7 -11.7°
Reaches altitude 10° 18:06:42 10° 333° (NNW) 1,101 3.0 -12.2°
Maximum altitude 18:07:50 12° 1° (N) 987 2.4 -12.4°
Enters shadow 18:08:11 12° 10° (N) 998 2.4 -12.5°
